This demonstration page uses our WeatherBlox Daily Observations layout. Learn more.

Left ArrowRight Arrow

Hourly Observations for May 22, 2019

Temp ( °F °C ) Dew Point ( °F °C ) Humidity (%) Winds ( mph kmh ) Pressure ( in mb ) Visibility ( mi km ) Precip ( " mm )
12:52 am 00:52 Clear 57 13.9 52 11.1 83 83 SSE 16 26 29.65 1004 10 16 0.00 0.00
1:52 am 01:52 Clear 57 13.9 52 11.1 83 83 SSE 16 26 29.66 1004 10 16 0.00 0.00
2:52 am 02:52 Clear 57 13.9 52 11.1 83 83 SSE 16 26 29.66 1004 10 16 0.00 0.00
3:52 am 03:52 Partly Cloudy 57 13.9 51 10.6 81 81 SSE 17 28 29.67 1005 10 16 0.00 0.00
4:52 am 04:52 Cloudy 57 13.9 50 10 78 78 SSE 14 22 29.68 1005 10 16 0.00 0.00
5:52 am 05:52 Cloudy 57 13.9 50 10 78 78 SSE 15 24 29.70 1006 10 16 0.00 0.00
6:52 am 06:52 Sunny 57 13.9 50 10 78 78 SSE 14 22 29.72 1007 10 16 0.00 0.00
7:52 am 07:52 Sunny 60 15.6 51 10.6 72 72 SSE 15 24 29.74 1007 10 16 0.00 0.00
8:52 am 08:52 Sunny 66 18.9 52 11.1 61 61 S 13 20 29.76 1008 10 16 0.00 0.00
9:52 am 09:52 Sunny 70 21.1 54 12.2 57 57 S 18 30 29.79 1009 10 16 0.00 0.00
10:52 am 10:52 Sunny 74 23.3 60 15.6 62 62 SSW 17 28 29.81 1010 10 16 0.00 0.00
11:52 am 11:52 Mostly Sunny 78 25.6 64 17.8 62 62 S 18 30 29.81 1010 10 16 0.00 0.00
12:52 pm 12:52 Mostly Cloudy 80 26.7 67 19.4 64 64 SSW 15 24 29.80 1009 10 16 0.00 0.00
1:52 pm 13:52 Mostly Sunny 83 28.3 66 18.9 57 57 S 18 30 29.80 1009 10 16 0.00 0.00
2:52 pm 14:52 Sunny 84 28.9 66 18.9 55 55 S 22 35 29.78 1008 10 16 0.00 0.00
3:52 pm 15:52 Sunny 84 28.9 66 18.9 55 55 S 23 37 29.78 1009 10 16 0.00 0.00
4:52 pm 16:52 Partly Cloudy 84 28.9 67 19.4 57 57 SSW 17 28 29.78 1009 10 16 0.00 0.00
5:52 pm 17:52 Mostly Sunny 84 28.9 68 20 59 59 S 15 24 29.80 1009 10 16 0.00 0.00
6:52 pm 18:52 Sunny 81 27.2 68 20 65 65 S 16 26 29.79 1009 10 16 0.00 0.00
7:52 pm 19:52 Mostly Sunny 79 26.1 68 20 69 69 S 10 17 29.80 1009 10 16 0.00 0.00
8:52 pm 20:52 Clear 79 26.1 68 20 69 69 S 9 15 29.83 1010 10 16 0.00 0.00
9:52 pm 21:52 Clear 79 26.1 68 20 69 69 S 10 17 29.82 1010 10 16 0.00 0.00
10:52 pm 22:52 Mostly Clear 77 25 68 20 74 74 S 16 26 29.84 1011 10 16 0.00 0.03
11:52 pm 23:52 Clear with Light Rain 77 25 68 20 74 74 S 8 13 29.86 1011 10 16 0.00 0.03

Powered by AerisWeather